Content
SEND FEEDBACK

Daily
Averages
Monthly
Summary
United States of America

BELLEVILLE, MICHIGAN


Home > North America > United States > Michigan
Elevation: 780 feet     Latitude: 42 14N     Longitude: 083 32W

WEATHER
 
SELECT A DAY
Number of Records: 202,607;   Date Range: 1/1/95 - 7/29/14
 
SHARE

PRINT THIS DATA

[ ← Previous Day ]
WEATHER ALMANAC - JANUARY 11, 2013
[ Next Day → ]
[ °C ]   °F
Weather ElementAverageHighLow
Temperature46.3 °F60.1 °F (3:53 pm)37.4 °F (12:22 am)
Dewpoint41.5 °F51.1 °F (2:53 pm)33.1 °F (12:53 am)
Humidity83.6 %93 % (8:18 am)67 % (3:53 pm)
Barometer29.91 in30.17 in (12:22 am)29.77 in (1:15 pm)
Wind Speed9.3 mph18.4 mph (9:29 am)
Wind Gust23 mph (9:18 am)
Weather ElementAverage
Visibility5.8 mi
Wind DirectionSSE (157.2 °)

Weather ElementTotal
Precipitation0.99 in
Heating Degree Days16.3 (Base 65)
Averaged from 46 records on January 11, 2013
WEATHER CONDITIONS BREAKOUT
WIND DIRECTION BREAKOUT
WEATHER BY HOUR - JANUARY 11, 2013
[ °C ]   °F
Local TimeTemperatureDewpointHumidityBarometerVisibilityWind DirectionWind SpeedGust SpeedPrecipitationEventsConditions
12:22 AM37.4 °F33.8 °F87 %30.17 in2.5 miEast (100°)6.9 mph0.03 inRainLight Rain
12:53 AM37.9 °F33.1 °F83 %30.15 in3.0 miEast (90°)10.4 mph0.16 inRainRain
1:05 AM37.4 °F33.8 °F87 %30.13 in7.0 miEast (90°)9.2 mph0.00 inOvercast
1:53 AM37.9 °F33.1 °F83 %30.12 in6.0 miESE (110°)8.1 mph0.00 inHaze
2:11 AM37.4 °F33.8 °F87 %30.11 in6.0 miSE (130°)4.6 mph0.00 inRainLight Rain
2:53 AM39.0 °F34.0 °F82 %30.10 in4.0 miEast (80°)4.6 mph0.10 inRainRain
3:04 AM37.4 °F33.8 °F87 %30.08 in2.5 miEast (90°)6.9 mph0.05 inRainRain
3:11 AM37.4 °F33.8 °F87 %30.08 in4.0 miEast (100°)6.9 mph0.06 inRainLight Rain
3:36 AM37.4 °F33.8 °F87 %30.05 in3.0 miEast (90°)8.1 mph0.11 inRainRain
3:53 AM39.0 °F34.0 °F82 %30.06 in7.0 miEast (90°)4.6 mph0.11 inOvercast
4:53 AM39.0 °F34.0 °F82 %30.00 in6.0 miEast (80°)5.8 mphHaze
5:53 AM39.0 °F35.1 °F86 %29.96 in5.0 miENE (60°)5.8 mph0.05 inRainLight Rain
6:53 AM39.9 °F35.1 °F83 %29.94 in5.0 miEast (80°)4.6 mph0.05 inRainLight Rain
7:08 AM39.2 °F35.6 °F87 %29.94 in6.0 miEast (80°)3.5 mph0.00 inRainLight Rain
7:33 AM39.2 °F35.6 °F87 %29.93 in2.5 miESE (120°)3.5 mph0.07 inRainRain
7:53 AM39.9 °F36.0 °F86 %29.92 in2.5 miESE (110°)6.9 mph0.16 inRainRain
8:18 AM39.2 °F37.4 °F93 %29.88 in2.5 miEast (100°)9.2 mph0.01 inRainLight Rain
8:29 AM41.0 °F37.4 °F87 %29.87 in1.8 miESE (120°)8.1 mph0.01 inRainLight Rain
8:49 AM42.8 °F39.2 °F87 %29.87 in1.8 miSSE (160°)9.2 mph0.01 inRainLight Rain
8:53 AM43.0 °F39.9 °F89 %29.87 in1.8 miSSE (160°)9.2 mph0.01 inOvercast
9:04 AM46.4 °F42.8 °F87 %29.84 in2.0 miSSE (160°)12.7 mphOvercast
9:18 AM46.4 °F42.8 °F87 %29.81 in3.0 miSSE (150°)17.3 mph23.0 mphOvercast
9:29 AM48.2 °F44.6 °F87 %29.79 in2.5 miSSE (150°)18.4 mphOvercast
9:53 AM48.0 °F44.1 °F86 %29.83 in3.0 miSouth (180°)11.5 mphOvercast
10:03 AM48.2 °F44.6 °F87 %29.82 in2.5 miSouth (170°)9.2 mphOvercast
10:11 AM48.2 °F44.6 °F87 %29.81 in3.0 miSouth (170°)6.9 mphOvercast
10:53 AM48.9 °F46.0 °F90 %29.84 in3.0 miSSW (200°)6.9 mphOvercast
11:15 AM48.2 °F46.4 °F93 %29.83 in2.5 miSSW (210°)3.5 mphOvercast
11:53 AM50.0 °F46.0 °F86 %29.82 in2.5 miSSW (200°)4.6 mph0.00 inRainLight Rain
12:05 PM50.0 °F46.4 °F87 %29.81 in4.0 miSW (220°)5.8 mph0.00 inOvercast
12:53 PM55.0 °F50.0 °F83 %29.78 in9.0 miSW (220°)16.1 mph0.00 inOvercast
1:15 PM55.4 °F50.0 °F82 %29.77 in10.0 miSSW (210°)16.1 mphOvercast
1:45 PM55.4 °F50.0 °F82 %29.78 in10.0 miSW (220°)17.3 mphOvercast
1:49 PM55.4 °F50.0 °F82 %29.78 in10.0 miSW (220°)15.0 mphOvercast
1:53 PM55.9 °F50.0 °F80 %29.78 in10.0 miSW (220°)17.3 mph23.0 mphOvercast
2:53 PM57.9 °F51.1 °F78 %29.80 in10.0 miSSW (210°)11.5 mphMostly Cloudy
3:02 PM59.0 °F50.0 °F72 %29.79 in10.0 miSSW (210°)15.0 mphScattered Clouds
3:53 PM60.1 °F48.9 °F67 %29.81 in10.0 miSW (220°)15.0 mphPartly Cloudy
4:53 PM57.9 °F46.9 °F67 %29.84 in10.0 miSW (230°)15.0 mph23.0 mphClear
5:53 PM54.0 °F45.0 °F72 %29.85 in10.0 miSW (230°)11.5 mphClear
6:53 PM51.1 °F44.1 °F77 %29.88 in10.0 miSW (220°)8.1 mphClear
7:53 PM50.0 °F44.1 °F80 %29.88 in10.0 miSSW (200°)6.9 mphClear
8:53 PM46.9 °F43.0 °F86 %29.88 in10.0 miSouth (190°)6.9 mphClear
9:53 PM48.9 °F43.0 °F80 %29.88 in10.0 miSouth (180°)6.9 mphClear
10:53 PM50.0 °F45.0 °F83 %29.87 in10.0 miSouth (190°)8.1 mphClear
11:53 PM52.0 °F45.0 °F77 %29.86 in10.0 miSSW (210°)10.4 mphClear
Hourly data recorded from KYIP, located miles away from Belleville, Michigan







STORIES FROM OUR PARTNERS